User: anonymous   Login
Location: ????????
(37.6846°N, 24.0673°E)
Time: 13:19:27
(UTC+00:00)
Language:

MSX - Orbit

View from above orbital plane
View from above orbital plane
View from above satellite
View from above satellite

Ground track
Ground track

The orbit data is extracted from the following two-line orbital elements,

1 23851U 96024A   20262.90399199 +.00000213 +00000-0 +17904-3 0  9991
2 23851 098.7894 224.3419 0006343 268.8872 091.1565 13.98091246245267
Epoch (UTC): 18 September 2020 21:41:44
Eccentricity: 0.0006343
inclination: 98.7894°
perigee height: 896 km
apogee height: 905 km
right ascension of ascending node: 224.3419°
argument of perigee: 268.8872°
revolutions per day: 13.98091246
mean anomaly at epoch: 91.1565°
orbit number at epoch: 24526

The dashed part of the orbit path shows where the satellite is in the earth's shadow,  

DLR